Back to catalog

COSMOS 968

AliveMilitaryLEO
NORAD 10520·PAYLOAD·🇷🇺 Russia

Launched Dec 16, 1977 from Plesetsk Cosmodrome

Loading…

Next Passes (next 24 hours)

TLE

FreshSource: Space-Track

Epoch: Sep 14, 2026, 11:42 UTC

1 10520U 77119A   26257.48759010  .00000092  00000-0  39729-4 0  9994
2 10520  74.0316 334.0653 0017617 190.6381 169.4402 14.37111545551633

Track COSMOS 968 in real time with AllMySat

Download on the App Store